Hourly Weather Tyrgowishte

Today, 8 July, Wednesday

Time Temperature Precipitation Wind Pressure Humidity
00:00 +19°C° 0 mm 4 mps 741 mmHg 72%
01:00 +18°C° 0 mm 4 mps 741 mmHg 73%
02:00 +18°C° 0 mm 4 mps 742 mmHg 74%
03:00 +17°C° 0 mm 3 mps 742 mmHg 76%
04:00 +16°C° 0 mm 3 mps 742 mmHg 78%
05:00 +16°C° 0 mm 3 mps 742 mmHg 81%
06:00 +17°C° 0 mm 3 mps 743 mmHg 78%
07:00 +17°C° 0 mm 3 mps 744 mmHg 74%
08:00 +18°C° 0 mm 3 mps 744 mmHg 71%
09:00 +19°C° 0 mm 3 mps 744 mmHg 67%
10:00 +20°C° 0 mm 3 mps 745 mmHg 63%
11:00 +21°C° 0 mm 3 mps 745 mmHg 59%
12:00 +22°C° 0 mm 3 mps 745 mmHg 58%
13:00 +24°C° 0 mm 3 mps 745 mmHg 56%
14:00 +25°C° 0 mm 2 mps 745 mmHg 54%
15:00 +24°C° 0 mm 2 mps 745 mmHg 55%
16:00 +24°C° 0 mm 2 mps 744 mmHg 57%
17:00 +24°C° 0 mm 1 mps 744 mmHg 58%
18:00 +23°C° 0 mm 1 mps 744 mmHg 62%
19:00 +22°C° 0 mm 1 mps 745 mmHg 66%
20:00 +18°C° 0 mm 0 mps 745 mmHg 70%
21:00 +18°C° 0 mm 0 mps 745 mmHg 72%
22:00 +17°C° 0 mm 0 mps 745 mmHg 74%
23:00 +18°C° 0 mm 1 mps 745 mmHg 76%

Tomorrow, 9 July, Thursday

Time Temperature Precipitation Wind Pressure Humidity
00:00 +18°C° 0 mm 1 mps 746 mmHg 77%
01:00 +16°C° 0 mm 1 mps 746 mmHg 79%
02:00 +16°C° 0 mm 1 mps 746 mmHg 80%
03:00 +16°C° 0 mm 1 mps 746 mmHg 80%
04:00 +15°C° 0 mm 0 mps 746 mmHg 81%
05:00 +14°C° 0 mm 0 mps 746 mmHg 82%
06:00 +17°C° 0 mm 0 mps 746 mmHg 75%
07:00 +19°C° 0 mm 0 mps 746 mmHg 69%
08:00 +21°C° 0 mm 0 mps 746 mmHg 63%
09:00 +22°C° 0 mm 0 mps 746 mmHg 57%
10:00 +26°C° 0 mm 1 mps 747 mmHg 51%
11:00 +27°C° 0 mm 1 mps 747 mmHg 45%
12:00 +28°C° 0 mm 1 mps 746 mmHg 43%
13:00 +28°C° 0 mm 1 mps 746 mmHg 42%
14:00 +29°C° 0 mm 1 mps 746 mmHg 41%
15:00 +29°C° 0 mm 1 mps 746 mmHg 42%
16:00 +28°C° 0 mm 1 mps 745 mmHg 43%
17:00 +28°C° 0 mm 1 mps 745 mmHg 44%
18:00 +26°C° 0 mm 1 mps 745 mmHg 51%
19:00 +24°C° 0 mm 1 mps 745 mmHg 57%
20:00 +22°C° 0 mm 1 mps 745 mmHg 64%
21:00 +21°C° 0 mm 1 mps 745 mmHg 68%
22:00 +20°C° 0 mm 1 mps 746 mmHg 72%
23:00 +19°C° 0 mm 1 mps 746 mmHg 77%

Day after tomorrow, 10 July, Friday

Time Temperature Precipitation Wind Pressure Humidity
00:00 +19°C° 0 mm 1 mps 746 mmHg 77%
01:00 +19°C° 0 mm 1 mps 746 mmHg 78%
02:00 +19°C° 0 mm 1 mps 746 mmHg 79%
03:00 +17°C° 0 mm 0 mps 746 mmHg 79%
04:00 +16°C° 0 mm 0 mps 746 mmHg 79%
05:00 +16°C° 0 mm 0 mps 746 mmHg 79%
06:00 +18°C° 0 mm 0 mps 746 mmHg 74%
07:00 +22°C° 0 mm 1 mps 746 mmHg 68%
08:00 +24°C° 0 mm 1 mps 746 mmHg 63%
09:00 +26°C° 0 mm 2 mps 746 mmHg 59%
10:00 +27°C° 0 mm 3 mps 746 mmHg 55%
11:00 +28°C° 0 mm 4 mps 746 mmHg 51%
12:00 +28°C° 0 mm 4 mps 746 mmHg 49%
13:00 +29°C° 0 mm 4 mps 746 mmHg 47%
14:00 +29°C° 0 mm 4 mps 746 mmHg 45%
15:00 +29°C° 0 mm 4 mps 745 mmHg 47%
16:00 +29°C° 0 mm 4 mps 745 mmHg 49%
17:00 +28°C° 0 mm 4 mps 745 mmHg 51%
18:00 +26°C° 0 mm 3 mps 745 mmHg 59%
19:00 +24°C° 0 mm 3 mps 745 mmHg 66%
20:00 +21°C° 0 mm 2 mps 745 mmHg 74%
21:00 +20°C° 0 mm 2 mps 745 mmHg 78%
22:00 +19°C° 0 mm 2 mps 746 mmHg 82%
23:00 +19°C° 0 mm 1 mps 746 mmHg 86%

11 July, Saturday

Time Temperature Precipitation Wind Pressure Humidity
00:00 +19°C° 0 mm 1 mps 745 mmHg 87%
01:00 +19°C° 0 mm 1 mps 745 mmHg 88%
02:00 +18°C° 0 mm 1 mps 745 mmHg 90%
03:00 +18°C° 0 mm 1 mps 745 mmHg 90%
04:00 +18°C° 0 mm 1 mps 745 mmHg 91%
05:00 +18°C° 0 mm 1 mps 744 mmHg 92%
06:00 +20°C° 0 mm 1 mps 745 mmHg 86%
07:00 +22°C° 0 mm 1 mps 745 mmHg 80%
08:00 +24°C° 0 mm 2 mps 745 mmHg 74%
09:00 +26°C° 0 mm 2 mps 745 mmHg 68%
10:00 +27°C° 0 mm 3 mps 745 mmHg 63%
11:00 +28°C° 0 mm 4 mps 745 mmHg 57%
12:00 +29°C° 0 mm 4 mps 744 mmHg 56%
13:00 +29°C° 0 mm 4 mps 744 mmHg 54%
14:00 +29°C° 0 mm 4 mps 744 mmHg 53%
15:00 +29°C° 0 mm 4 mps 743 mmHg 54%
16:00 +29°C° 0 mm 4 mps 743 mmHg 55%
17:00 +29°C° 0 mm 4 mps 743 mmHg 55%
18:00 +27°C° 0 mm 3 mps 743 mmHg 62%
19:00 +25°C° 0 mm 3 mps 743 mmHg 68%
20:00 +23°C° 0 mm 2 mps 743 mmHg 74%
21:00 +21°C° 0 mm 2 mps 743 mmHg 77%
22:00 +21°C° 0 mm 1 mps 743 mmHg 80%
23:00 +20°C° 0 mm 1 mps 743 mmHg 84%

12 July, Sunday

Time Temperature Precipitation Wind Pressure Humidity
00:00 +20°C° 0 mm 1 mps 743 mmHg 85%
01:00 +20°C° 0 mm 1 mps 742 mmHg 86%
02:00 +19°C° 0 mm 1 mps 742 mmHg 87%
03:00 +17°C° 0 mm 0 mps 742 mmHg 87%
04:00 +17°C° 0 mm 0 mps 742 mmHg 88%
05:00 +16°C° 0 mm 0 mps 741 mmHg 88%
06:00 +19°C° 0 mm 0 mps 742 mmHg 80%
07:00 +23°C° 0 mm 1 mps 742 mmHg 73%
08:00 +25°C° 0 mm 1 mps 742 mmHg 65%
09:00 +26°C° 0 mm 2 mps 742 mmHg 60%
10:00 +27°C° 0 mm 2 mps 742 mmHg 55%
11:00 +29°C° 0 mm 2 mps 742 mmHg 50%
12:00 +29°C° 0 mm 3 mps 742 mmHg 52%
13:00 +29°C° 0 mm 3 mps 742 mmHg 54%
14:00 +29°C° 0 mm 3 mps 742 mmHg 56%
15:00 +29°C° 0.1 mm 4 mps 742 mmHg 58%
16:00 +29°C° 0.1 mm 4 mps 741 mmHg 60%
17:00 +29°C° 0.1 mm 4 mps 741 mmHg 62%
18:00 +27°C° 0.2 mm 4 mps 742 mmHg 66%
19:00 +26°C° 0.2 mm 3 mps 742 mmHg 70%
20:00 +24°C° 0.2 mm 3 mps 742 mmHg 74%
21:00 +22°C° 0.1 mm 3 mps 742 mmHg 77%
22:00 +21°C° 0.1 mm 3 mps 743 mmHg 79%
23:00 +20°C° 0.1 mm 4 mps 743 mmHg 81%

13 July, Monday

Time Temperature Precipitation Wind Pressure Humidity
00:00 +19°C° 0 mm 3 mps 743 mmHg 84%
01:00 +18°C° 0 mm 3 mps 744 mmHg 87%
02:00 +17°C° 0 mm 3 mps 744 mmHg 90%
03:00 +16°C° 0 mm 3 mps 744 mmHg 89%
04:00 +16°C° 0 mm 3 mps 744 mmHg 88%
05:00 +16°C° 0 mm 3 mps 744 mmHg 88%
06:00 +16°C° 0 mm 3 mps 744 mmHg 85%
07:00 +16°C° 0 mm 3 mps 745 mmHg 83%
08:00 +16°C° 0 mm 3 mps 745 mmHg 80%
09:00 +17°C° 0 mm 3 mps 745 mmHg 75%
10:00 +18°C° 0 mm 4 mps 745 mmHg 70%
11:00 +19°C° 0 mm 4 mps 745 mmHg 65%
12:00 +20°C° 0 mm 4 mps 745 mmHg 62%
13:00 +22°C° 0 mm 4 mps 745 mmHg 58%
14:00 +23°C° 0 mm 5 mps 745 mmHg 54%
15:00 +23°C° 0 mm 5 mps 745 mmHg 55%
16:00 +23°C° 0 mm 4 mps 745 mmHg 56%
17:00 +23°C° 0 mm 4 mps 744 mmHg 57%
18:00 +21°C° 0 mm 3 mps 744 mmHg 65%
19:00 +19°C° 0 mm 2 mps 744 mmHg 73%
20:00 +18°C° 0 mm 1 mps 744 mmHg 81%
21:00 +18°C° 0 mm 1 mps 745 mmHg 82%
22:00 +16°C° 0 mm 1 mps 745 mmHg 84%
23:00 +16°C° 0 mm 1 mps 745 mmHg 86%
Show more